TimePDT,TemperatureF,Dew PointF,Humidity,Sea Level PressureIn,VisibilityMPH,Wind Direction,Wind SpeedMPH,Gust SpeedMPH,PrecipitationIn,Events,Conditions,WindDirDegrees,DateUTC
12:53 AM,64.9,42.1,43,29.88,10.0,Calm,Calm,-,N/A,,Clear,0,2012-10-04 07:53:00
1:53 AM,63.0,43.0,48,29.89,10.0,Calm,Calm,-,N/A,,Clear,0,2012-10-04 08:53:00
2:53 AM,63.0,44.1,50,29.90,10.0,Calm,Calm,-,N/A,,Clear,0,2012-10-04 09:53:00
3:53 AM,61.0,43.0,52,29.91,10.0,Calm,Calm,-,N/A,,Clear,0,2012-10-04 10:53:00
4:53 AM,57.9,43.0,58,29.93,10.0,Calm,Calm,-,N/A,,Clear,0,2012-10-04 11:53:00
5:53 AM,57.0,43.0,59,29.95,10.0,Calm,Calm,-,N/A,,Clear,0,2012-10-04 12:53:00
6:53 AM,55.0,42.1,62,29.98,10.0,Calm,Calm,-,N/A,,Clear,0,2012-10-04 13:53:00
7:53 AM,55.9,43.0,62,30.00,10.0,East,3.5,-,N/A,,Clear,100,2012-10-04 14:53:00
8:53 AM,64.9,44.1,47,30.01,10.0,SE,3.5,-,N/A,,Clear,130,2012-10-04 15:53:00
9:53 AM,69.1,48.0,47,30.02,10.0,Calm,Calm,-,N/A,,Clear,0,2012-10-04 16:53:00
10:53 AM,73.0,48.0,41,30.02,10.0,Calm,Calm,-,N/A,,Clear,0,2012-10-04 17:53:00
11:53 AM,75.0,48.0,38,30.02,10.0,SSW,4.6,-,N/A,,Clear,200,2012-10-04 18:53:00
12:53 PM,79.0,48.0,34,30.00,10.0,Variable,4.6,-,N/A,,Clear,0,2012-10-04 19:53:00
1:53 PM,82.0,48.0,30,29.99,10.0,Variable,5.8,-,N/A,,Clear,0,2012-10-04 20:53:00
2:53 PM,84.2,48.2,29,29.98,10.0,South,8.1,-,N/A,,Clear,180,2012-10-04 21:53:00
3:53 PM,84.9,42.1,22,29.95,10.0,South,11.5,-,N/A,,Clear,180,2012-10-04 22:53:00
4:53 PM,84.0,45.0,25,29.95,10.0,South,13.8,-,N/A,,Clear,190,2012-10-04 23:53:00
5:53 PM,80.6,46.4,30,29.96,10.0,South,15.0,-,N/A,,Clear,190,2012-10-05 00:53:00
6:53 PM,75.0,51.1,43,29.97,10.0,SSE,6.9,-,N/A,,Clear,160,2012-10-05 01:53:00
7:53 PM,73.0,51.1,46,29.99,10.0,SE,3.5,-,N/A,,Clear,130,2012-10-05 02:53:00
8:53 PM,70.0,52.0,53,30.01,10.0,North,3.5,-,N/A,,Clear,10,2012-10-05 03:53:00
9:53 PM,68.0,53.1,59,30.02,10.0,Calm,Calm,-,N/A,,Clear,0,2012-10-05 04:53:00
10:53 PM,64.0,52.0,65,30.04,10.0,Calm,Calm,-,N/A,,Clear,0,2012-10-05 05:53:00
11:53 PM,63.0,51.1,65,30.05,10.0,Calm,Calm,-,N/A,,Clear,0,2012-10-05 06:53:00